This is the latest recevied weather packets stored in our database for station/object GBTWP-2. If no packets are shown the sender has not sent any weather packets the latest 10 day(s).
| Time | Temp. | Humidity | Pressure | Rain* | Wind** | Luminosity | Snow |
|---|---|---|---|---|---|---|---|
| 1777418702 | 15° C | 68% | 1015.1 hPa | 0 mm | - | 22 W/m² | - |
| 1777417802 | 15.56° C | 67% | 1014.7 hPa | 0 mm | - | 24 W/m² | - |
| 1777417202 | 15.56° C | 67% | 1014.6 hPa | 0 mm | - | 26 W/m² | - |
| 1777416602 | 15.56° C | 66% | 1014.7 hPa | 0 mm | - | 33 W/m² | - |
| 1777416301 | 15.56° C | 67% | 1014.9 hPa | 0 mm | - | 37 W/m² | - |
| 1777416002 | 15.56° C | 68% | 1014.5 hPa | 0 mm | - | 58 W/m² | - |
| 1777415402 | 15.56° C | 67% | 1014.3 hPa | 0 mm | - | 35 W/m² | - |
| 1777415101 | 15.56° C | 67% | 1014.1 hPa | 0 mm | - | 58 W/m² | - |
| 1777414802 | 16.11° C | 66% | 1014.2 hPa | 0 mm | - | 37 W/m² | - |
| 1777414502 | 16.11° C | 66% | 1014.2 hPa | 0 mm | - | 54 W/m² | - |
| 1777414202 | 16.11° C | 66% | 1014 hPa | 0 mm | - | 108 W/m² | - |
| 1777413902 | 15.56° C | 66% | 1014 hPa | 0 mm | - | 49 W/m² | - |
| 1777412102 | 15° C | 68% | 1014.1 hPa | 0 mm | - | 39 W/m² | - |
| 1777411802 | 15° C | 68% | 1014 hPa | 0 mm | - | 35 W/m² | - |
| 1777411201 | 15.56° C | 69% | 1014.2 hPa | 0 mm | - | 71 W/m² | - |
| 1777410302 | 15° C | 69% | 1014.3 hPa | 0 mm | - | 102 W/m² | - |
| 1777410002 | 15° C | 70% | 1014.1 hPa | 0 mm | - | 193 W/m² | - |
| 1777409702 | 15° C | 69% | 1014 hPa | 0 mm | - | 129 W/m² | - |
| 1777408501 | 15.56° C | 70% | 1013.9 hPa | 0 mm | - | 127 W/m² | - |
| 1777408202 | 15.56° C | 70% | 1013.9 hPa | 0 mm | - | 131 W/m² | - |
| 1777407901 | 15° C | 71% | 1014 hPa | 0 mm | - | 151 W/m² | - |
| 1777407602 | 15° C | 71% | 1014.1 hPa | 0 mm | - | 124 W/m² | - |
| 1777405802 | 15.56° C | 70% | 1013.8 hPa | 0 mm | - | 133 W/m² | - |
| 1777405201 | 15.56° C | 71% | 1013.7 hPa | 0 mm | - | 151 W/m² | - |
| 1777404902 | 15.56° C | 72% | 1013.8 hPa | 0 mm | - | 150 W/m² | - |
* Rain latest hour (hover to see other rain measurements)
** Current wind speed in m/s (hover to see current wind gust speed)